FJI420 NFFN-NZAA

Flight info

Callsign FJI420
Flight time 2h 50m
Altitude 32000
Route FOXTRO AGTOS A578 KALAG
Aircraft A333/H-SDE3GHIJ2J3J5M1RVWXY/LB2D1

Departure

Time 2026-05-09 00:18
Airport Nadi International Airport (NFFN)

Arrival

Time 2026-05-09 03:08
Airport Auckland International Airport (NZAA)
Time Latitude Longitude Altitude Speed Heading
2026-05-09 00:04 -17.75311 177.44961 58 ft 0 kts 105°
2026-05-09 00:10 -17.75309 177.44954 58 ft 2 kts 92°
2026-05-09 00:10 -17.75311 177.44939 58 ft 2 kts 62°
2026-05-09 00:10 -17.75320 177.44926 58 ft 2 kts 38°
2026-05-09 00:11 -17.75333 177.44919 58 ft 2 kts 13°
2026-05-09 00:11 -17.75348 177.44917 58 ft 2 kts 349°
2026-05-09 00:11 -17.75358 177.44919 59 ft 0 kts 349°
2026-05-09 00:11 -17.75359 177.44919 59 ft 0 kts 349°
2026-05-09 00:14 -17.75353 177.44919 58 ft 5 kts 352°
2026-05-09 00:14 -17.75281 177.44920 57 ft 12 kts
2026-05-09 00:14 -17.75225 177.44931 56 ft 7 kts 11°
2026-05-09 00:14 -17.75182 177.44940 55 ft 5 kts 12°
2026-05-09 00:15 -17.75118 177.44955 54 ft 10 kts 12°
2026-05-09 00:15 -17.75051 177.44928 53 ft 11 kts 302°
2026-05-09 00:15 -17.75043 177.44902 52 ft 0 kts 281°
2026-05-09 00:15 -17.75041 177.44893 52 ft 2 kts 282°
2026-05-09 00:16 -17.75028 177.44829 51 ft 16 kts 282°
2026-05-09 00:16 -17.75048 177.44708 49 ft 18 kts 225°
2026-05-09 00:16 -17.75080 177.44681 49 ft 0 kts 217°
2026-05-09 00:17 -17.75088 177.44675 49 ft 9 kts 217°
2026-05-09 00:17 -17.75306 177.44499 52 ft 70 kts 218°
2026-05-09 00:17 -17.75860 177.44052 49 ft 128 kts 218°
2026-05-09 00:17 -17.76705 177.43372 85 ft 171 kts 221°
2026-05-09 00:18 -17.77630 177.42609 510 ft 176 kts 219°
2026-05-09 00:18 -17.78614 177.41812 829 ft 174 kts 219°
2026-05-09 00:18 -17.79559 177.41042 1148 ft 175 kts 218°
2026-05-09 00:18 -17.80573 177.40218 1351 ft 190 kts 218°
2026-05-09 00:19 -17.81657 177.39334 1584 ft 203 kts 217°
2026-05-09 00:19 -17.82781 177.38420 2053 ft 203 kts 217°
2026-05-09 00:19 -17.83905 177.37508 2519 ft 202 kts 218°
2026-05-09 00:19 -17.85022 177.36598 2925 ft 207 kts 218°
2026-05-09 00:20 -17.86185 177.35651 3379 ft 215 kts 219°
2026-05-09 00:20 -17.87374 177.34680 3885 ft 223 kts 219°
2026-05-09 00:20 -17.88656 177.33635 4665 ft 243 kts 218°
2026-05-09 00:20 -17.89994 177.32667 5544 ft 234 kts 203°
2026-05-09 00:21 -17.91633 177.32358 5925 ft 245 kts 181°
2026-05-09 00:21 -17.93352 177.32266 6466 ft 251 kts 185°
2026-05-09 00:21 -17.95140 177.32126 6971 ft 259 kts 184°
2026-05-09 00:21 -17.96956 177.31979 7461 ft 267 kts 185°
2026-05-09 00:22 -17.98823 177.31825 7949 ft 274 kts 185°
2026-05-09 00:22 -18.00772 177.31663 8437 ft 280 kts 185°
2026-05-09 00:22 -18.02710 177.31503 8909 ft 285 kts 185°
2026-05-09 00:22 -18.04731 177.31335 9402 ft 289 kts 185°
2026-05-09 00:23 -18.06746 177.31169 9888 ft 293 kts 185°
2026-05-09 00:23 -18.08793 177.31000 10369 ft 296 kts 185°
2026-05-09 00:23 -18.10848 177.30830 10832 ft 299 kts 185°
2026-05-09 00:23 -18.12946 177.30656 11311 ft 302 kts 185°
2026-05-09 00:24 -18.15041 177.30482 11806 ft 305 kts 185°
2026-05-09 00:24 -18.17205 177.30302 12288 ft 308 kts 185°
2026-05-09 00:24 -18.19323 177.30127 12755 ft 310 kts 185°
2026-05-09 00:24 -18.21501 177.29947 13230 ft 312 kts 185°
2026-05-09 00:25 -18.23677 177.29767 13706 ft 313 kts 185°
2026-05-09 00:25 -18.25845 177.29585 14164 ft 315 kts 185°
2026-05-09 00:25 -18.28036 177.29405 14643 ft 316 kts 185°
2026-05-09 00:25 -18.30230 177.29222 15119 ft 317 kts 185°
2026-05-09 00:26 -18.32424 177.29040 15604 ft 317 kts 185°
2026-05-09 00:26 -18.34652 177.28854 16075 ft 318 kts 185°
2026-05-09 00:26 -18.36870 177.28671 16549 ft 318 kts 185°
2026-05-09 00:26 -18.39067 177.28488 17010 ft 319 kts 185°
2026-05-09 00:27 -18.41288 177.28304 17494 ft 318 kts 185°
2026-05-09 00:27 -18.43500 177.28120 17967 ft 318 kts 185°
2026-05-09 00:27 -18.45716 177.27936 18441 ft 318 kts 185°
2026-05-09 00:27 -18.47934 177.27753 18922 ft 317 kts 185°
2026-05-09 00:28 -18.50122 177.27571 19400 ft 316 kts 185°
2026-05-09 00:28 -18.52319 177.27388 19875 ft 315 kts 185°
2026-05-09 00:28 -18.54502 177.27206 20348 ft 314 kts 185°
2026-05-09 00:28 -18.56695 177.27023 20828 ft 312 kts 185°
2026-05-09 00:29 -18.58831 177.26845 21295 ft 310 kts 186°
2026-05-09 00:29 -18.60994 177.26665 21773 ft 308 kts 186°
2026-05-09 00:29 -18.63122 177.26488 22243 ft 305 kts 186°
2026-05-09 00:29 -18.65220 177.26314 22714 ft 302 kts 186°
2026-05-09 00:30 -18.67308 177.26140 23181 ft 299 kts 186°
2026-05-09 00:30 -18.69377 177.25967 23648 ft 295 kts 187°
2026-05-09 00:30 -18.71412 177.25798 24119 ft 290 kts 187°
2026-05-09 00:30 -18.73419 177.25632 24587 ft 286 kts 188°
2026-05-09 00:31 -18.75374 177.25468 25052 ft 280 kts 188°
2026-05-09 00:31 -18.77288 177.25310 25499 ft 275 kts 189°
2026-05-09 00:31 -18.79183 177.25151 25961 ft 268 kts 189°
2026-05-09 00:31 -18.81030 177.24997 26399 ft 263 kts 189°
2026-05-09 00:32 -18.82881 177.24840 26629 ft 270 kts 189°
2026-05-09 00:32 -18.84756 177.24683 26907 ft 275 kts 189°
2026-05-09 00:32 -18.86705 177.24518 27179 ft 281 kts 189°
2026-05-09 00:32 -18.88685 177.24353 27455 ft 286 kts 189°
2026-05-09 00:33 -18.90689 177.24185 27744 ft 291 kts 189°
2026-05-09 00:33 -18.92723 177.24014 28027 ft 296 kts 190°
2026-05-09 00:33 -18.94803 177.23842 28307 ft 301 kts 190°
2026-05-09 00:33 -18.96900 177.23665 28588 ft 306 kts 190°
2026-05-09 00:34 -18.99039 177.23486 28878 ft 310 kts 190°
2026-05-09 00:34 -19.01214 177.23303 29171 ft 314 kts 191°
2026-05-09 00:34 -19.03413 177.23120 29461 ft 318 kts 191°
2026-05-09 00:34 -19.05646 177.22932 29755 ft 322 kts 191°
2026-05-09 00:35 -19.07878 177.22746 30044 ft 325 kts 191°
2026-05-09 00:35 -19.10156 177.22556 30331 ft 327 kts 191°
2026-05-09 00:35 -19.12424 177.22366 30638 ft 327 kts 191°
2026-05-09 00:35 -19.14689 177.22177 30930 ft 327 kts 192°
2026-05-09 00:36 -19.16979 177.21985 31230 ft 327 kts 191°
2026-05-09 00:36 -19.19273 177.21793 31528 ft 327 kts 192°
2026-05-09 00:36 -19.21538 177.21602 31824 ft 326 kts 191°
2026-05-09 00:36 -19.23810 177.21411 32054 ft 328 kts 192°
2026-05-09 00:37 -19.26115 177.21214 32017 ft 338 kts 192°
2026-05-09 00:37 -19.30941 177.20808 32049 ft 355 kts 191°
2026-05-09 00:38 -19.35974 177.20247 32048 ft 370 kts 192°
2026-05-09 00:38 -19.41225 177.19636 32040 ft 387 kts 192°
2026-05-09 00:39 -19.46694 177.19002 32042 ft 401 kts 192°
2026-05-09 00:39 -19.52360 177.18344 32036 ft 415 kts 192°
2026-05-09 00:40 -19.58200 177.17665 32031 ft 426 kts 192°
2026-05-09 00:40 -19.64209 177.16968 32031 ft 435 kts 192°
2026-05-09 00:41 -19.73354 177.15904 32027 ft 445 kts 192°
2026-05-09 00:41 -19.79538 177.15184 32027 ft 449 kts 192°
2026-05-09 00:42 -19.85805 177.14452 32025 ft 452 kts 192°
2026-05-09 00:42 -19.92074 177.13721 32026 ft 454 kts 192°
2026-05-09 00:43 -19.98402 177.12981 32026 ft 455 kts 192°
2026-05-09 00:43 -20.04697 177.12245 32026 ft 456 kts 192°
2026-05-09 00:44 -20.11061 177.11500 32029 ft 456 kts 192°
2026-05-09 00:44 -20.17377 177.10761 32031 ft 454 kts 192°
2026-05-09 00:45 -20.23622 177.10028 32032 ft 452 kts 192°
2026-05-09 00:45 -20.29941 177.09283 32036 ft 453 kts 193°
2026-05-09 00:46 -20.36236 177.08540 32031 ft 453 kts 193°
2026-05-09 00:46 -20.42476 177.07800 32024 ft 452 kts 192°
2026-05-09 00:47 -20.48773 177.07056 32025 ft 451 kts 192°
2026-05-09 00:47 -20.54994 177.06317 32032 ft 451 kts 193°
2026-05-09 00:48 -20.61276 177.05574 32028 ft 451 kts 193°
2026-05-09 00:48 -20.67542 177.04829 32030 ft 452 kts 193°
2026-05-09 00:49 -20.73807 177.04086 32026 ft 452 kts 193°
2026-05-09 00:49 -20.80077 177.03340 32024 ft 450 kts 193°
2026-05-09 00:50 -20.86311 177.02599 32025 ft 451 kts 193°
2026-05-09 00:50 -20.92547 177.01855 32023 ft 451 kts 193°
2026-05-09 00:51 -20.98819 177.01109 32023 ft 451 kts 193°
2026-05-09 00:51 -21.05075 177.00362 32024 ft 451 kts 193°
2026-05-09 00:52 -21.11351 176.99614 32028 ft 451 kts 193°
2026-05-09 00:52 -21.17618 176.98865 32028 ft 451 kts 193°
2026-05-09 00:53 -21.23860 176.98117 32030 ft 450 kts 193°
2026-05-09 00:53 -21.30078 176.97374 32031 ft 452 kts 193°
2026-05-09 00:54 -21.36354 176.96622 32029 ft 450 kts 193°
2026-05-09 00:54 -21.42580 176.95875 32030 ft 451 kts 193°
2026-05-09 00:55 -21.48848 176.95123 32027 ft 452 kts 193°
2026-05-09 00:55 -21.55139 176.94368 32028 ft 451 kts 193°
2026-05-09 00:56 -21.60882 176.93680 32027 ft 450 kts 193°
2026-05-09 00:56 -21.67154 176.92923 32028 ft 451 kts 194°
2026-05-09 00:57 -21.73387 176.92174 32026 ft 451 kts 193°
2026-05-09 00:57 -21.79658 176.91417 32025 ft 451 kts 194°
2026-05-09 00:58 -21.85885 176.90666 32026 ft 450 kts 194°
2026-05-09 00:58 -21.92149 176.89909 32025 ft 451 kts 193°
2026-05-09 00:59 -21.98411 176.89153 32028 ft 450 kts 194°
2026-05-09 00:59 -22.04625 176.88402 32030 ft 451 kts 194°
2026-05-09 01:00 -22.10883 176.87645 32023 ft 452 kts 194°
2026-05-09 01:00 -22.17140 176.86887 32034 ft 451 kts 194°
2026-05-09 01:01 -22.23403 176.86128 32032 ft 452 kts 194°
2026-05-09 01:01 -22.29657 176.85368 32032 ft 452 kts 194°
2026-05-09 01:02 -22.35945 176.84604 32032 ft 453 kts 194°
2026-05-09 01:02 -22.42197 176.83844 32030 ft 452 kts 194°
2026-05-09 01:03 -22.48436 176.83086 32028 ft 451 kts 194°
2026-05-09 01:03 -22.54720 176.82320 32029 ft 453 kts 194°
2026-05-09 01:04 -22.60994 176.81554 32025 ft 453 kts 194°
2026-05-09 01:04 -22.67282 176.80788 32035 ft 453 kts 194°
2026-05-09 01:05 -22.73579 176.80019 32029 ft 452 kts 194°
2026-05-09 01:06 -22.83001 176.78867 32025 ft 455 kts 194°
2026-05-09 01:06 -22.89284 176.78098 32029 ft 455 kts 194°
2026-05-09 01:07 -22.95618 176.77321 32036 ft 454 kts 194°
2026-05-09 01:07 -23.01895 176.76552 32030 ft 454 kts 194°
2026-05-09 01:08 -23.08193 176.75778 32021 ft 454 kts 194°
2026-05-09 01:08 -23.14516 176.75001 32029 ft 456 kts 194°
2026-05-09 01:09 -23.20874 176.74219 32029 ft 456 kts 194°
2026-05-09 01:09 -23.27176 176.73444 32030 ft 455 kts 194°
2026-05-09 01:10 -23.33529 176.72661 32029 ft 456 kts 194°
2026-05-09 01:10 -23.39827 176.71884 32026 ft 455 kts 194°
2026-05-09 01:11 -23.46165 176.71100 32027 ft 456 kts 194°
2026-05-09 01:11 -23.52478 176.70320 32029 ft 457 kts 194°
2026-05-09 01:12 -23.58832 176.69536 32028 ft 456 kts 194°
2026-05-09 01:12 -23.65173 176.68749 32024 ft 459 kts 194°
2026-05-09 01:13 -23.71527 176.67961 32026 ft 458 kts 194°
2026-05-09 01:13 -23.77900 176.67172 32027 ft 459 kts 194°
2026-05-09 01:14 -23.84254 176.66382 32024 ft 459 kts 195°
2026-05-09 01:14 -23.90655 176.65587 32023 ft 458 kts 195°
2026-05-09 01:15 -23.97069 176.64787 32024 ft 460 kts 195°
2026-05-09 01:15 -24.03476 176.63989 32025 ft 458 kts 195°
2026-05-09 01:16 -24.09891 176.63190 32023 ft 460 kts 195°
2026-05-09 01:16 -24.16260 176.62396 32023 ft 460 kts 195°
2026-05-09 01:17 -24.25827 176.61198 32023 ft 460 kts 195°
2026-05-09 01:17 -24.32216 176.60399 32020 ft 461 kts 195°
2026-05-09 01:18 -24.38598 176.59601 32021 ft 461 kts 195°
2026-05-09 01:18 -24.44988 176.58800 32025 ft 460 kts 195°
2026-05-09 01:19 -24.51374 176.57997 32025 ft 460 kts 195°
2026-05-09 01:19 -24.57782 176.57191 32022 ft 462 kts 195°
2026-05-09 01:20 -24.64153 176.56390 32018 ft 463 kts 195°
2026-05-09 01:20 -24.70569 176.55583 32021 ft 462 kts 195°
2026-05-09 01:21 -24.76974 176.54778 32029 ft 463 kts 195°
2026-05-09 01:21 -24.83392 176.53967 32023 ft 462 kts 195°
2026-05-09 01:22 -24.89812 176.53155 32022 ft 463 kts 195°
2026-05-09 01:22 -24.96250 176.52341 32016 ft 465 kts 195°
2026-05-09 01:23 -25.02680 176.51529 32022 ft 463 kts 195°
2026-05-09 01:23 -25.09071 176.50719 32017 ft 466 kts 195°
2026-05-09 01:24 -25.15554 176.49898 32025 ft 466 kts 195°
2026-05-09 01:24 -25.22000 176.49081 32016 ft 466 kts 195°
2026-05-09 01:25 -25.28450 176.48259 32025 ft 466 kts 195°
2026-05-09 01:25 -25.34915 176.47440 32018 ft 466 kts 195°
2026-05-09 01:26 -25.41343 176.46623 32025 ft 466 kts 195°
2026-05-09 01:26 -25.47836 176.45793 32024 ft 467 kts 195°
2026-05-09 01:27 -25.54275 176.44974 32014 ft 467 kts 195°
2026-05-09 01:27 -25.60743 176.44148 32024 ft 467 kts 195°
2026-05-09 01:28 -25.67254 176.43315 32022 ft 468 kts 195°
2026-05-09 01:28 -25.73750 176.42485 32023 ft 469 kts 195°
2026-05-09 01:29 -25.80215 176.41658 32027 ft 468 kts 195°
2026-05-09 01:29 -25.86761 176.40816 32022 ft 469 kts 195°
2026-05-09 01:30 -25.93239 176.39987 32017 ft 469 kts 196°
2026-05-09 01:30 -25.99710 176.39156 32016 ft 470 kts 195°
2026-05-09 01:31 -26.06261 176.38312 32020 ft 470 kts 195°
2026-05-09 01:31 -26.12762 176.37476 32020 ft 471 kts 196°
2026-05-09 01:32 -26.19298 176.36632 32018 ft 470 kts 196°
2026-05-09 01:32 -26.25821 176.35790 32012 ft 471 kts 195°
2026-05-09 01:33 -26.32342 176.34947 32009 ft 472 kts 196°
2026-05-09 01:33 -26.38853 176.34105 32007 ft 472 kts 196°
2026-05-09 01:34 -26.45397 176.33256 32013 ft 472 kts 196°
2026-05-09 01:34 -26.51928 176.32411 32017 ft 473 kts 196°
2026-05-09 01:35 -26.58474 176.31561 32018 ft 470 kts 196°
2026-05-09 01:35 -26.64997 176.30713 32024 ft 473 kts 196°
2026-05-09 01:36 -26.71561 176.29860 32008 ft 471 kts 197°
2026-05-09 01:36 -26.78110 176.29007 32002 ft 473 kts 197°
2026-05-09 01:37 -26.84656 176.28151 32006 ft 475 kts 197°
2026-05-09 01:37 -26.91204 176.27298 31999 ft 474 kts 197°
2026-05-09 01:38 -26.97765 176.26439 31998 ft 474 kts 196°
2026-05-09 01:38 -27.04370 176.25575 31992 ft 475 kts 197°
2026-05-09 01:39 -27.10944 176.24713 31991 ft 475 kts 197°
2026-05-09 01:39 -27.17502 176.23853 31988 ft 475 kts 197°
2026-05-09 01:40 -27.24081 176.22989 31990 ft 478 kts 197°
2026-05-09 01:40 -27.30697 176.22121 31983 ft 477 kts 196°
2026-05-09 01:41 -27.37319 176.21248 31986 ft 475 kts 197°
2026-05-09 01:41 -27.43919 176.20377 31986 ft 478 kts 197°
2026-05-09 01:42 -27.50495 176.19508 31984 ft 480 kts 197°
2026-05-09 01:42 -27.57112 176.18634 31973 ft 478 kts 197°
2026-05-09 01:43 -27.63735 176.17757 31978 ft 478 kts 197°
2026-05-09 01:43 -27.70354 176.16882 31979 ft 479 kts 197°
2026-05-09 01:44 -27.76950 176.16007 31979 ft 480 kts 197°
2026-05-09 01:44 -27.83578 176.15129 31974 ft 480 kts 197°
2026-05-09 01:45 -27.90224 176.14244 31972 ft 480 kts 197°
2026-05-09 01:45 -27.96868 176.13361 31976 ft 477 kts 197°
2026-05-09 01:46 -28.03482 176.12479 31970 ft 481 kts 197°
2026-05-09 01:46 -28.10127 176.11592 31971 ft 478 kts 197°
2026-05-09 01:47 -28.16742 176.10707 31969 ft 480 kts 197°
2026-05-09 01:47 -28.23422 176.09814 31971 ft 482 kts 197°
2026-05-09 01:48 -28.30082 176.08923 31969 ft 481 kts 197°
2026-05-09 01:48 -28.36728 176.08032 31971 ft 480 kts 197°
2026-05-09 01:49 -28.43412 176.07134 31971 ft 482 kts 197°
2026-05-09 01:49 -28.50100 176.06236 31977 ft 481 kts 197°
2026-05-09 01:50 -28.56836 176.05327 31973 ft 482 kts 197°
2026-05-09 01:50 -28.63531 176.04425 31968 ft 482 kts 197°
2026-05-09 01:51 -28.70187 176.03526 31968 ft 482 kts 197°
2026-05-09 01:51 -28.76855 176.02624 31969 ft 481 kts 197°
2026-05-09 01:52 -28.83561 176.01718 31967 ft 485 kts 197°
2026-05-09 01:52 -28.90296 176.00804 31969 ft 486 kts 197°
2026-05-09 01:53 -28.97042 175.99890 31966 ft 486 kts 197°
2026-05-09 01:53 -29.03769 175.98978 31972 ft 485 kts 198°
2026-05-09 01:54 -29.10508 175.98062 31973 ft 484 kts 197°
2026-05-09 01:54 -29.17196 175.97148 31963 ft 485 kts 197°
2026-05-09 01:55 -29.23919 175.96233 31964 ft 487 kts 197°
2026-05-09 01:55 -29.30633 175.95317 31954 ft 487 kts 197°
2026-05-09 01:56 -29.37376 175.94394 31958 ft 485 kts 198°
2026-05-09 01:56 -29.44121 175.93471 31949 ft 487 kts 197°
2026-05-09 01:57 -29.50839 175.92551 31956 ft 486 kts 198°
2026-05-09 01:57 -29.57602 175.91620 31956 ft 488 kts 198°
2026-05-09 01:58 -29.64301 175.90703 31959 ft 485 kts 198°
2026-05-09 01:58 -29.71082 175.89766 31951 ft 489 kts 198°
2026-05-09 01:59 -29.77834 175.88838 31946 ft 487 kts 198°
2026-05-09 01:59 -29.84584 175.87904 31939 ft 488 kts 198°
2026-05-09 02:00 -29.91358 175.86969 31951 ft 488 kts 198°
2026-05-09 02:00 -29.98091 175.86037 31939 ft 487 kts 198°
2026-05-09 02:01 -30.04881 175.85094 31936 ft 491 kts 198°
2026-05-09 02:01 -30.11676 175.84154 31942 ft 487 kts 198°
2026-05-09 02:02 -30.18458 175.83209 31943 ft 490 kts 198°
2026-05-09 02:02 -30.25193 175.82272 31934 ft 490 kts 198°
2026-05-09 02:03 -30.32010 175.81322 31925 ft 490 kts 198°
2026-05-09 02:03 -30.38790 175.80376 31920 ft 488 kts 198°
2026-05-09 02:04 -30.45542 175.79433 31924 ft 490 kts 198°
2026-05-09 02:04 -30.52332 175.78482 31921 ft 491 kts 198°
2026-05-09 02:05 -30.59152 175.77525 31910 ft 492 kts 198°
2026-05-09 02:05 -30.65931 175.76575 31921 ft 492 kts 198°
2026-05-09 02:06 -30.72753 175.75617 31663 ft 490 kts 198°
2026-05-09 02:06 -30.76112 175.75143 31503 ft 492 kts 198°
2026-05-09 02:07 -30.82888 175.74190 31188 ft 488 kts 198°
2026-05-09 02:07 -30.86298 175.73709 31024 ft 486 kts 198°
2026-05-09 02:07 -30.89667 175.73233 30860 ft 485 kts 198°
2026-05-09 02:07 -30.93015 175.72760 30703 ft 483 kts 198°
2026-05-09 02:08 -30.96345 175.72286 30546 ft 487 kts 198°
2026-05-09 02:08 -30.99715 175.71809 30390 ft 485 kts 198°
2026-05-09 02:08 -31.03079 175.71332 30232 ft 484 kts 198°
2026-05-09 02:08 -31.06420 175.70856 30074 ft 485 kts 198°
2026-05-09 02:09 -31.09789 175.70378 29917 ft 484 kts 198°
2026-05-09 02:09 -31.13099 175.69908 29752 ft 481 kts 198°
2026-05-09 02:09 -31.16416 175.69437 29579 ft 480 kts 199°
2026-05-09 02:09 -31.19761 175.68959 29412 ft 479 kts 198°
2026-05-09 02:10 -31.23049 175.68491 29247 ft 477 kts 198°
2026-05-09 02:10 -31.26342 175.68022 29084 ft 477 kts 199°
2026-05-09 02:10 -31.29661 175.67546 28919 ft 477 kts 198°
2026-05-09 02:10 -31.32911 175.67082 28756 ft 474 kts 198°
2026-05-09 02:11 -31.36222 175.66609 28591 ft 473 kts 198°
2026-05-09 02:11 -31.39485 175.66144 28425 ft 470 kts 198°
2026-05-09 02:11 -31.42720 175.65678 28257 ft 472 kts 198°
2026-05-09 02:11 -31.45979 175.65212 28103 ft 471 kts 198°
2026-05-09 02:12 -31.49240 175.64745 27948 ft 471 kts 198°
2026-05-09 02:12 -31.52492 175.64278 27777 ft 468 kts 198°
2026-05-09 02:12 -31.55723 175.63815 27611 ft 466 kts 198°
2026-05-09 02:12 -31.58914 175.63356 27449 ft 463 kts 198°
2026-05-09 02:13 -31.62111 175.62897 27289 ft 464 kts 198°
2026-05-09 02:13 -31.65323 175.62433 27125 ft 464 kts 198°
2026-05-09 02:13 -31.68518 175.61974 26969 ft 463 kts 198°
2026-05-09 02:13 -31.71745 175.61508 26808 ft 463 kts 198°
2026-05-09 02:14 -31.74903 175.61055 26655 ft 461 kts 198°
2026-05-09 02:14 -31.78098 175.60594 26492 ft 458 kts 198°
2026-05-09 02:14 -31.81247 175.60138 26330 ft 459 kts 198°
2026-05-09 02:14 -31.84409 175.59682 26176 ft 458 kts 198°
2026-05-09 02:15 -31.87570 175.59225 26018 ft 456 kts 198°
2026-05-09 02:15 -31.90725 175.58768 25864 ft 456 kts 198°
2026-05-09 02:15 -31.93867 175.58313 25710 ft 454 kts 198°
2026-05-09 02:15 -31.97011 175.57858 25552 ft 453 kts 198°
2026-05-09 02:16 -32.00140 175.57404 25392 ft 453 kts 197°
2026-05-09 02:16 -32.03269 175.56952 25235 ft 452 kts 197°
2026-05-09 02:16 -32.06415 175.56493 25002 ft 452 kts 197°
2026-05-09 02:16 -32.09537 175.56041 24739 ft 449 kts 197°
2026-05-09 02:17 -32.12608 175.55595 24504 ft 446 kts 197°
2026-05-09 02:17 -32.15677 175.55148 24331 ft 445 kts 197°
2026-05-09 02:17 -32.18749 175.54700 24177 ft 444 kts 197°
2026-05-09 02:17 -32.21838 175.54250 24012 ft 445 kts 197°
2026-05-09 02:18 -32.24915 175.53803 23863 ft 443 kts 197°
2026-05-09 02:18 -32.27934 175.53361 23705 ft 441 kts 197°
2026-05-09 02:18 -32.30991 175.52916 23538 ft 440 kts 196°
2026-05-09 02:18 -32.34016 175.52473 23383 ft 440 kts 196°
2026-05-09 02:19 -32.37066 175.52028 23221 ft 439 kts 196°
2026-05-09 02:19 -32.40116 175.51582 23063 ft 437 kts 196°
2026-05-09 02:19 -32.43097 175.51146 22905 ft 437 kts 196°
2026-05-09 02:19 -32.46154 175.50699 22751 ft 437 kts 196°
2026-05-09 02:20 -32.49169 175.50256 22593 ft 434 kts 195°
2026-05-09 02:20 -32.52154 175.49818 22470 ft 434 kts 195°
2026-05-09 02:20 -32.55164 175.49377 22372 ft 433 kts 195°
2026-05-09 02:20 -32.58158 175.48936 22265 ft 434 kts 195°
2026-05-09 02:21 -32.61126 175.48502 22163 ft 433 kts 195°
2026-05-09 02:21 -32.64109 175.48064 22060 ft 431 kts 195°
2026-05-09 02:21 -32.67093 175.47624 21954 ft 431 kts 195°
2026-05-09 02:21 -32.70093 175.47183 21843 ft 430 kts 195°
2026-05-09 02:22 -32.73054 175.46747 21742 ft 430 kts 195°
2026-05-09 02:22 -32.76027 175.46307 21648 ft 430 kts 195°
2026-05-09 02:22 -32.78980 175.45871 21539 ft 429 kts 195°
2026-05-09 02:22 -32.81958 175.45433 21434 ft 429 kts 195°
2026-05-09 02:23 -32.84928 175.44994 21332 ft 428 kts 195°
2026-05-09 02:23 -32.87856 175.44562 21226 ft 427 kts 195°
2026-05-09 02:23 -32.90821 175.44122 21123 ft 427 kts 195°
2026-05-09 02:23 -32.93750 175.43689 21022 ft 427 kts 194°
2026-05-09 02:24 -32.96700 175.43251 20921 ft 427 kts 194°
2026-05-09 02:24 -32.99645 175.42816 20822 ft 427 kts 194°
2026-05-09 02:24 -33.02583 175.42380 20723 ft 425 kts 194°
2026-05-09 02:24 -33.05555 175.41937 20616 ft 426 kts 194°
2026-05-09 02:25 -33.08484 175.41504 20567 ft 424 kts 194°
2026-05-09 02:25 -33.11447 175.41063 20540 ft 426 kts 194°
2026-05-09 02:25 -33.14345 175.40633 20498 ft 425 kts 194°
2026-05-09 02:25 -33.17282 175.40195 20464 ft 426 kts 194°
2026-05-09 02:26 -33.20262 175.39752 20427 ft 424 kts 194°
2026-05-09 02:26 -33.23184 175.39316 20390 ft 425 kts 194°
2026-05-09 02:26 -33.26121 175.38878 20353 ft 425 kts 194°
2026-05-09 02:26 -33.29050 175.38441 20318 ft 425 kts 194°
2026-05-09 02:27 -33.32001 175.38001 20276 ft 425 kts 194°
2026-05-09 02:27 -33.34930 175.37563 20238 ft 425 kts 194°
2026-05-09 02:27 -33.37884 175.37122 20199 ft 425 kts 194°
2026-05-09 02:27 -33.40816 175.36682 20165 ft 425 kts 194°
2026-05-09 02:28 -33.43779 175.36238 20122 ft 425 kts 194°
2026-05-09 02:28 -33.46696 175.35802 20085 ft 424 kts 194°
2026-05-09 02:28 -33.49633 175.35361 20047 ft 425 kts 194°
2026-05-09 02:28 -33.52578 175.34918 20010 ft 425 kts 194°
2026-05-09 02:29 -33.55489 175.34483 19991 ft 424 kts 194°
2026-05-09 02:29 -33.58434 175.34041 19971 ft 424 kts 194°
2026-05-09 02:29 -33.61382 175.33597 19951 ft 425 kts 194°
2026-05-09 02:29 -33.64335 175.33153 19932 ft 424 kts 195°
2026-05-09 02:30 -33.67245 175.32713 19916 ft 425 kts 194°
2026-05-09 02:30 -33.70222 175.32370 19885 ft 430 kts 188°
2026-05-09 02:30 -33.73231 175.32353 19875 ft 431 kts 187°
2026-05-09 02:30 -33.76256 175.32329 19796 ft 433 kts 187°
2026-05-09 02:31 -33.79261 175.32306 19522 ft 431 kts 187°
2026-05-09 02:31 -33.82241 175.32283 19277 ft 427 kts 187°
2026-05-09 02:31 -33.85219 175.32260 19036 ft 425 kts 187°
2026-05-09 02:31 -33.88007 175.32239 18812 ft 425 kts 187°
2026-05-09 02:32 -33.88337 175.32236 18786 ft 424 kts 187°
2026-05-09 02:32 -33.91286 175.32211 18547 ft 424 kts 187°
2026-05-09 02:32 -33.94247 175.32188 18308 ft 422 kts 187°
2026-05-09 02:32 -33.97197 175.32165 18071 ft 421 kts 187°
2026-05-09 02:33 -34.00093 175.32143 17837 ft 419 kts 187°
2026-05-09 02:33 -34.03031 175.32120 17598 ft 417 kts 187°
2026-05-09 02:33 -34.05934 175.32095 17363 ft 417 kts 187°
2026-05-09 02:33 -34.08843 175.32074 17140 ft 416 kts 187°
2026-05-09 02:34 -34.11753 175.32051 16991 ft 414 kts 187°
2026-05-09 02:34 -34.14618 175.32028 16846 ft 414 kts 187°
2026-05-09 02:34 -34.17494 175.32004 16703 ft 413 kts 187°
2026-05-09 02:34 -34.20409 175.31981 16559 ft 413 kts 187°
2026-05-09 02:35 -34.23261 175.31959 16415 ft 411 kts 187°
2026-05-09 02:35 -34.26138 175.31937 16273 ft 411 kts 186°
2026-05-09 02:35 -34.28986 175.31914 16173 ft 410 kts 186°
2026-05-09 02:35 -34.31862 175.31891 16082 ft 409 kts 186°
2026-05-09 02:36 -34.34713 175.31868 15991 ft 409 kts 186°
2026-05-09 02:36 -34.37598 175.31845 15895 ft 409 kts 186°
2026-05-09 02:36 -34.40457 175.31824 15800 ft 408 kts 186°
2026-05-09 02:36 -34.43303 175.31799 15712 ft 408 kts 186°
2026-05-09 02:37 -34.46143 175.31776 15616 ft 408 kts 186°
2026-05-09 02:37 -34.48971 175.31755 15523 ft 406 kts 186°
2026-05-09 02:37 -34.51817 175.31732 15428 ft 407 kts 186°
2026-05-09 02:37 -34.54483 175.31711 15341 ft 406 kts 186°
2026-05-09 02:38 -34.57311 175.31688 15249 ft 405 kts 186°
2026-05-09 02:38 -34.60144 175.31667 15159 ft 404 kts 186°
2026-05-09 02:38 -34.62953 175.31642 15066 ft 406 kts 186°
2026-05-09 02:38 -34.65818 175.31619 14977 ft 403 kts 186°
2026-05-09 02:39 -34.68623 175.31598 14884 ft 404 kts 186°
2026-05-09 02:39 -34.71408 175.31575 14794 ft 403 kts 186°
2026-05-09 02:39 -34.74239 175.31552 14705 ft 402 kts 186°
2026-05-09 02:39 -34.77030 175.31529 14612 ft 402 kts 186°
2026-05-09 02:40 -34.79848 175.31508 14525 ft 401 kts 186°
2026-05-09 02:40 -34.82626 175.31485 14434 ft 401 kts 186°
2026-05-09 02:40 -34.85428 175.31462 14343 ft 401 kts 186°
2026-05-09 02:40 -34.88230 175.31441 14254 ft 400 kts 186°
2026-05-09 02:41 -34.90998 175.31418 14184 ft 400 kts 186°
2026-05-09 02:41 -34.93794 175.31395 14148 ft 400 kts 186°
2026-05-09 02:41 -34.96568 175.31374 14111 ft 399 kts 186°
2026-05-09 02:41 -34.99362 175.31351 14076 ft 400 kts 186°
2026-05-09 02:42 -35.02129 175.31328 14039 ft 400 kts 186°
2026-05-09 02:42 -35.04936 175.31306 14009 ft 399 kts 186°
2026-05-09 02:42 -35.07711 175.31282 13974 ft 400 kts 186°
2026-05-09 02:42 -35.10425 175.31261 13937 ft 398 kts 186°
2026-05-09 02:43 -35.13221 175.31238 13882 ft 400 kts 186°
2026-05-09 02:43 -35.16005 175.31216 13836 ft 398 kts 186°
2026-05-09 02:43 -35.18773 175.31192 13782 ft 399 kts 186°
2026-05-09 02:43 -35.21531 175.31171 13737 ft 398 kts 186°
2026-05-09 02:44 -35.24359 175.31148 13692 ft 398 kts 186°
2026-05-09 02:44 -35.27156 175.31125 13645 ft 398 kts 186°
2026-05-09 02:44 -35.29926 175.31104 13602 ft 397 kts 186°
2026-05-09 02:44 -35.32589 175.31081 13557 ft 396 kts 186°
2026-05-09 02:45 -35.35312 175.31059 13511 ft 397 kts 186°
2026-05-09 02:45 -35.38101 175.31036 13466 ft 397 kts 186°
2026-05-09 02:45 -35.40853 175.31014 13424 ft 397 kts 186°
2026-05-09 02:45 -35.43636 175.30991 13377 ft 397 kts 186°
2026-05-09 02:46 -35.46384 175.30968 13333 ft 395 kts 186°
2026-05-09 02:46 -35.49151 175.30945 13294 ft 395 kts 186°
2026-05-09 02:46 -35.51911 175.30922 13249 ft 395 kts 186°
2026-05-09 02:46 -35.54649 175.30902 13199 ft 394 kts 186°
2026-05-09 02:47 -35.57408 175.30878 13163 ft 395 kts 186°
2026-05-09 02:47 -35.60161 175.30855 13123 ft 394 kts 186°
2026-05-09 02:47 -35.62933 175.30832 13020 ft 395 kts 186°
2026-05-09 02:47 -35.65673 175.30811 12860 ft 392 kts 186°
2026-05-09 02:48 -35.68389 175.30788 12718 ft 392 kts 186°
2026-05-09 02:48 -35.71122 175.30766 12581 ft 389 kts 186°
2026-05-09 02:48 -35.73821 175.30743 12445 ft 389 kts 186°
2026-05-09 02:48 -35.76522 175.30722 12218 ft 388 kts 186°
2026-05-09 02:49 -35.79234 175.30698 11968 ft 385 kts 186°
2026-05-09 02:49 -35.81880 175.30678 11733 ft 382 kts 186°
2026-05-09 02:49 -35.84536 175.30656 11491 ft 380 kts 186°
2026-05-09 02:49 -35.87176 175.30633 11255 ft 378 kts 186°
2026-05-09 02:50 -35.89803 175.30612 11022 ft 376 kts 186°
2026-05-09 02:50 -35.92408 175.30591 10792 ft 373 kts 186°
2026-05-09 02:50 -35.95031 175.30568 10549 ft 370 kts 185°
2026-05-09 02:50 -35.97613 175.30547 10310 ft 369 kts 185°
2026-05-09 02:51 -36.00170 175.30527 10087 ft 366 kts 185°
2026-05-09 02:51 -36.02708 175.30505 10061 ft 364 kts 185°
2026-05-09 02:51 -36.05237 175.30482 10085 ft 366 kts 185°
2026-05-09 02:51 -36.07804 175.30463 10070 ft 366 kts 185°
2026-05-09 02:52 -36.10350 175.30441 10064 ft 361 kts 185°
2026-05-09 02:52 -36.12838 175.30425 10045 ft 346 kts 186°
2026-05-09 02:52 -36.15228 175.30403 10055 ft 342 kts 186°
2026-05-09 02:52 -36.17633 175.30382 10065 ft 342 kts 186°
2026-05-09 02:53 -36.20012 175.30362 10061 ft 342 kts 186°
2026-05-09 02:53 -36.22391 175.30341 10060 ft 343 kts 186°
2026-05-09 02:53 -36.24802 175.30321 10065 ft 343 kts 186°
2026-05-09 02:53 -36.27187 175.30301 10064 ft 343 kts 186°
2026-05-09 02:54 -36.29612 175.30280 10059 ft 343 kts 186°
2026-05-09 02:54 -36.32002 175.30261 10063 ft 343 kts 186°
2026-05-09 02:54 -36.34375 175.30241 10055 ft 341 kts 186°
2026-05-09 02:54 -36.36704 175.30063 9951 ft 322 kts 199°
2026-05-09 02:55 -36.38770 175.29205 9795 ft 308 kts 206°
2026-05-09 02:55 -36.40861 175.28245 9455 ft 331 kts 206°
2026-05-09 02:55 -36.43030 175.27263 9095 ft 329 kts 205°
2026-05-09 02:55 -36.45182 175.26288 8722 ft 326 kts 205°
2026-05-09 02:56 -36.47294 175.25328 8352 ft 322 kts 205°
2026-05-09 02:56 -36.49399 175.24371 7981 ft 319 kts 205°
2026-05-09 02:56 -36.51470 175.23430 7567 ft 317 kts 205°
2026-05-09 02:56 -36.53536 175.22488 7063 ft 319 kts 205°
2026-05-09 02:57 -36.55629 175.21532 6571 ft 319 kts 204°
2026-05-09 02:57 -36.57709 175.20584 6006 ft 308 kts 204°
2026-05-09 02:57 -36.59626 175.19713 6057 ft 276 kts 204°
2026-05-09 02:57 -36.61374 175.18915 6092 ft 268 kts 205°
2026-05-09 02:58 -36.63133 175.18108 5952 ft 261 kts 205°
2026-05-09 02:58 -36.64836 175.17325 5711 ft 259 kts 205°
2026-05-09 02:58 -36.66523 175.16550 5433 ft 258 kts 205°
2026-05-09 02:58 -36.68225 175.15770 5179 ft 257 kts 205°
2026-05-09 02:59 -36.69912 175.14996 4923 ft 255 kts 205°
2026-05-09 02:59 -36.71584 175.14229 4645 ft 255 kts 205°
2026-05-09 02:59 -36.73218 175.13480 4289 ft 258 kts 204°
2026-05-09 02:59 -36.74930 175.12695 4034 ft 256 kts 204°
2026-05-09 03:00 -36.76598 175.11929 4071 ft 252 kts 205°
2026-05-09 03:00 -36.78228 175.11182 4033 ft 249 kts 204°
2026-05-09 03:00 -36.79864 175.10431 3749 ft 250 kts 204°
2026-05-09 03:00 -36.81514 175.09674 3539 ft 243 kts 204°
2026-05-09 03:01 -36.83036 175.08980 3521 ft 224 kts 205°
2026-05-09 03:01 -36.84507 175.08301 3225 ft 227 kts 205°
2026-05-09 03:01 -36.85979 175.07626 3017 ft 218 kts 205°
2026-05-09 03:01 -36.87380 175.06987 3037 ft 199 kts 205°
2026-05-09 03:02 -36.88646 175.06406 3103 ft 184 kts 205°
2026-05-09 03:02 -36.89857 175.05846 3196 ft 184 kts 206°
2026-05-09 03:02 -36.91062 175.05276 3252 ft 178 kts 206°
2026-05-09 03:02 -36.92171 175.04730 3133 ft 167 kts 208°
2026-05-09 03:03 -36.93183 175.04065 2971 ft 160 kts 221°
2026-05-09 03:03 -36.94008 175.03130 2797 ft 157 kts 232°
2026-05-09 03:03 -36.94653 175.02026 2561 ft 154 kts 245°
2026-05-09 03:03 -36.95061 175.00797 2273 ft 153 kts 253°
2026-05-09 03:04 -36.95424 174.99556 2133 ft 151 kts 253°
2026-05-09 03:04 -36.95779 174.98294 2017 ft 150 kts 254°
2026-05-09 03:04 -36.96119 174.97058 1915 ft 149 kts 255°
2026-05-09 03:04 -36.96460 174.95816 1863 ft 150 kts 254°
2026-05-09 03:05 -36.96811 174.94585 1819 ft 150 kts 253°
2026-05-09 03:05 -36.97173 174.93350 1768 ft 150 kts 253°
2026-05-09 03:05 -36.97535 174.92122 1668 ft 149 kts 253°
2026-05-09 03:05 -36.97889 174.90887 1508 ft 151 kts 256°
2026-05-09 03:06 -36.98192 174.89615 1352 ft 150 kts 255°
2026-05-09 03:06 -36.98542 174.88388 1203 ft 152 kts 252°
2026-05-09 03:06 -36.98901 174.87143 1012 ft 153 kts 255°
2026-05-09 03:06 -36.99234 174.85860 855 ft 154 kts 255°
2026-05-09 03:07 -36.99572 174.84611 680 ft 151 kts 254°
2026-05-09 03:07 -36.99910 174.83340 499 ft 150 kts 255°
2026-05-09 03:07 -37.00263 174.82088 321 ft 154 kts 254°
2026-05-09 03:07 -37.00603 174.80817 135 ft 154 kts 255°
2026-05-09 03:08 -37.00915 174.79652 37 ft 120 kts 250°
2026-05-09 03:08 -37.01108 174.78958 31 ft 60 kts 252°
2026-05-09 03:08 -37.01217 174.78564 30 ft 31 kts 254°
2026-05-09 03:08 -37.01242 174.78302 30 ft 29 kts 273°
2026-05-09 03:09 -37.01221 174.78149 30 ft 10 kts 289°
2026-05-09 03:09 -37.01136 174.78171 30 ft 19 kts 64°
2026-05-09 03:09 -37.01088 174.78328 30 ft 18 kts 57°
2026-05-09 03:09 -37.00975 174.78365 30 ft 17 kts 351°
2026-05-09 03:10 -37.00864 174.78371 32 ft 14 kts
2026-05-09 03:10 -37.00787 174.78339 34 ft 11 kts 296°
2026-05-09 03:10 -37.00771 174.78297 35 ft 3 kts 297°
2026-05-09 03:10 -37.00764 174.78281 35 ft 0 kts 297°
2026-05-09 03:11 -37.00762 174.78278 36 ft 0 kts 297°